Location: Владивосток
(43.1151°N, 131.8856°E)
Time: 02:01:19
(UTC+10:00)

FO-29 - Pass Details

Date: 26 April 2024
Orbit: 801 x 1320 km, 98.6° (Epoch: 19 May)

Event Time Altitude Azimuth Distance (km) Brightness Sun altitude
Rises 03:13:07 0° 13° (NNE) 4,212 13.9 -26.8°
Reaches altitude 10° 03:15:44 10° 13° (NNE) 3,283 13.1 -26.5°
Maximum altitude 03:23:30 87° 287° (WNW) 1,325 10.0 -25.7°
Enters shadow 03:26:19 46° 199° (SSW) 1,722 10.3 -25.4°
